DateTimeUTC,F1_A11,F1_S11,BsB_S11,BsG_S11,BsR_S11,BbsB_S11,BbsG_S11,BbsR_S11,BaB_A11,BaG_A11,BaR_A11,Tu_S11,T_S11,Uu_S11,U_S11,P_S11,T1_A11
2021-09-04T20:00:00Z,00000200,21000000,,,,,,,-000.04,-000.22,-000.16,18.9,25.9,,00.0,0665.9,31.1
2021-09-04T20:01:00Z,00000200,21000000,,,,,,,-000.05,0000.01,0000.31,18.9,25.9,,00.0,0665.9,31.1
2021-09-04T20:02:00Z,00000200,21000000,,,,,,,-000.11,-000.44,-000.44,18.9,25.9,,00.0,0665.9,31.1
2021-09-04T20:03:00Z,00000200,61000000,,,,,,,0000.11,0000.53,0000.47,19.0,25.9,,00.0,0665.9,31.1
2021-09-04T20:04:00Z,00000200,41000000,0001.44,0001.50,0001.30,0000.05,-000.03,0000.43,0000.56,0000.21,0000.08,19.2,25.8,00.1,00.1,0666.8,31.1
2021-09-04T20:05:00Z,00000200,01000000,0002.42,0001.83,0001.06,-000.43,0000.21,-000.18,0000.12,0000.52,0000.43,19.2,25.8,00.1,00.1,0666.8,31.1
2021-09-04T20:06:00Z,00000200,01000000,0001.49,0001.54,0001.08,0000.40,0000.29,0000.35,0000.66,0000.55,0000.07,19.2,25.8,00.2,00.1,0666.9,31.1
2021-09-04T20:07:00Z,00000200,01000000,0001.60,0001.43,0001.08,0000.03,0000.31,0000.09,0000.44,-000.02,0000.36,19.2,25.7,00.2,00.1,0666.9,31.1
2021-09-04T20:08:00Z,00000200,01000000,0002.45,0001.21,0000.86,0000.70,-000.09,-000.06,0000.45,0000.76,-000.07,19.1,25.7,00.1,00.1,0666.9,31.1
2021-09-04T20:09:00Z,00000200,01000000,0001.67,0000.87,0000.64,0000.42,0000.30,0000.22,0000.09,0000.14,0000.60,19.1,25.7,00.1,00.1,0666.8,31.1
2021-09-04T20:10:00Z,00000200,01000000,0002.00,0001.06,0000.54,-000.04,0000.46,0000.15,0000.36,0000.28,0000.12,19.1,25.7,00.2,00.1,0666.8,31.1
2021-09-04T20:11:00Z,00000200,01000000,0000.71,0001.29,0000.35,-000.15,0000.48,-000.21,0000.28,0000.18,0000.55,19.1,25.6,00.2,00.1,0666.8,31.1
2021-09-04T20:12:00Z,00000200,01000000,0000.64,0000.42,0000.26,0000.37,0000.05,0000.00,0000.41,0000.33,0000.14,19.0,25.6,00.2,00.1,0666.8,31.1
2021-09-04T20:13:00Z,00000200,01000000,0001.06,0000.85,0000.82,0000.19,0000.30,0000.32,-000.14,0000.24,-000.02,19.1,25.6,00.1,00.1,0666.8,31.1
2021-09-04T20:14:00Z,00000200,01000000,0001.18,0000.92,0000.81,0000.41,-000.04,0000.24,0000.93,0000.11,0000.25,19.2,25.6,00.2,00.1,0666.9,31.1
2021-09-04T20:15:00Z,00000200,01000000,0001.32,0001.10,0000.73,-000.10,-000.04,0000.18,-000.03,0000.25,0000.03,19.3,25.7,00.1,00.1,0666.9,31.1
2021-09-04T20:16:00Z,00000200,01000000,0001.77,0001.05,0000.78,-000.01,0000.33,0000.15,0000.10,0000.20,0000.22,19.3,25.7,00.1,00.1,0666.9,31.1
2021-09-04T20:17:00Z,00000200,01000000,0001.52,0001.14,0000.54,0000.10,-000.09,-000.02,0000.36,0000.10,0000.13,19.3,25.7,00.1,00.1,0666.9,31.1
2021-09-04T20:18:00Z,00000200,01000000,0001.43,0000.94,0000.77,0000.31,0000.00,0000.20,-000.16,0000.19,0000.26,19.3,25.7,00.1,00.1,0666.9,31.1
2021-09-04T20:19:00Z,00000200,01000000,0001.25,0000.75,0000.64,0000.52,-000.07,0000.26,0000.43,0000.14,-000.05,19.2,25.7,00.1,00.1,0666.9,31.1
2021-09-04T20:20:00Z,00000200,01000000,0001.12,0001.05,0000.62,0000.17,-000.16,0000.21,0000.15,0000.44,0000.38,19.2,25.7,00.1,00.1,0666.8,31.1
2021-09-04T20:21:00Z,00000200,01000000,-000.14,0000.39,-000.10,0000.24,0000.07,-000.37,0000.30,-000.11,-000.11,19.2,25.7,00.1,00.1,0666.8,31.1
2021-09-04T20:22:00Z,00000200,01000000,0001.09,0000.45,0000.43,0000.08,0000.22,0000.11,0000.22,0000.12,0000.17,19.1,25.7,00.1,00.1,0666.8,31.1
2021-09-04T20:23:00Z,00000200,01000000,0000.67,0000.69,-000.01,0000.32,0000.18,-000.19,0000.04,0000.12,0000.15,19.1,25.6,00.2,00.1,0666.8,31.1
2021-09-04T20:24:00Z,00000200,01000000,0000.69,0000.44,-000.03,0000.13,-000.06,-000.03,0000.29,0000.33,0000.06,19.1,25.6,00.2,00.1,0666.8,31.1
2021-09-04T20:25:00Z,00000200,01000000,0000.37,0000.33,0000.13,-000.13,0000.01,-000.16,-000.05,-000.09,0000.01,19.0,25.6,00.1,00.1,0666.8,31.0
2021-09-04T20:26:00Z,00000200,01000000,0000.18,0000.43,0000.58,-000.64,0000.47,0000.25,0000.23,0000.37,0000.18,19.0,25.6,00.2,00.1,0666.8,31.1
2021-09-04T20:27:00Z,00000200,01000000,0000.30,0000.57,0000.22,-000.43,0000.26,0000.10,0000.55,0000.11,0000.15,19.0,25.6,00.2,00.1,0666.8,31.0
2021-09-04T20:28:00Z,00000200,01000000,0000.27,0000.55,0000.27,0000.11,0000.16,-000.08,0000.23,0000.41,0000.39,19.0,25.6,00.2,00.1,0666.8,31.1
2021-09-04T20:29:00Z,00000200,01000000,0000.48,0000.34,0000.06,-000.07,0000.04,0000.03,0000.02,0000.26,0000.15,19.1,25.6,00.2,00.1,0666.8,31.1
2021-09-04T20:30:00Z,00000200,01000000,-000.18,0000.57,0000.40,0000.34,0000.23,-000.03,0000.16,-000.05,0000.10,19.2,25.7,00.1,00.0,0666.9,31.1
2021-09-04T20:31:00Z,00000200,01000000,0000.31,0000.81,0000.21,0000.22,0000.08,-000.22,0000.00,-000.10,-000.02,19.3,25.7,00.1,00.1,0666.9,31.1
2021-09-04T20:32:00Z,00000200,01000000,0000.36,0000.21,0000.16,0000.22,0000.18,0000.01,0000.07,0000.40,0000.07,19.4,25.8,00.2,00.1,0666.9,31.1
2021-09-04T20:33:00Z,00000200,01000000,0001.69,0000.48,0000.04,-000.09,-000.05,-000.06,0000.29,-000.01,0000.12,19.4,25.8,00.2,00.1,0666.9,31.1
2021-09-04T20:34:00Z,00000200,01000000,0000.60,0000.35,0000.09,0000.13,0000.35,0000.15,0000.23,0000.29,0000.04,19.4,25.8,00.1,00.1,0666.9,31.1
2021-09-04T20:35:00Z,00000200,01000000,-000.08,-000.01,0000.33,0000.16,-000.01,0000.44,-000.43,-000.12,-000.19,19.3,25.8,00.1,00.1,0666.9,31.1
2021-09-04T20:36:00Z,00000200,01000000,-000.43,0000.54,0000.04,0000.19,-000.07,-000.22,0000.19,-000.40,-000.11,19.3,25.7,00.2,00.1,0666.9,31.1
2021-09-04T20:37:00Z,00000200,01000000,0000.59,0000.44,0000.23,-000.47,-000.22,0000.26,0000.12,0000.25,0000.30,19.2,25.7,00.2,00.1,0666.8,31.1
2021-09-04T20:38:00Z,00000200,01000000,-000.41,0000.03,0000.17,-000.51,0000.06,0000.24,-000.12,-000.05,0000.08,19.2,25.7,00.1,00.1,0666.8,31.1
2021-09-04T20:39:00Z,00000200,01000000,0000.30,0000.14,0000.04,-000.00,0000.02,-000.02,-000.16,-000.08,-000.37,19.2,25.7,00.1,00.1,0666.8,31.1
2021-09-04T20:40:00Z,00000200,01000000,0000.26,0000.18,0000.08,-000.31,0000.05,0000.18,-000.26,0000.06,0000.10,19.1,25.6,00.1,00.1,0666.8,31.1
2021-09-04T20:41:00Z,00000200,01000000,0000.04,-000.10,0000.17,-000.22,-000.16,0000.03,0000.39,-000.05,-000.13,19.1,25.6,00.1,00.1,0666.8,31.1
2021-09-04T20:42:00Z,00000200,01000000,0000.53,0000.15,0000.08,-000.35,-000.02,0000.09,0000.12,0000.03,0000.07,19.1,25.6,00.1,00.1,0666.9,31.1
2021-09-04T20:43:00Z,00000200,01000000,-000.47,0000.24,0000.22,0000.01,0000.12,0000.11,-000.07,0000.31,0000.36,19.1,25.6,00.1,00.0,0666.9,31.1
2021-09-04T20:44:00Z,00000200,01000000,0000.03,-000.16,0000.59,-000.59,0000.11,-000.24,0000.14,-000.09,-000.03,19.2,25.6,00.1,00.0,0666.9,31.1
2021-09-04T20:45:00Z,00000200,01000000,-000.44,0000.28,-000.03,-000.28,0000.10,-000.06,-000.18,0000.10,-000.01,19.3,25.7,00.1,00.1,0666.9,31.1
2021-09-04T20:46:00Z,00000200,01000000,0000.33,0000.33,-000.01,-000.40,-000.14,-000.10,0000.21,-000.11,0000.03,19.4,25.7,00.1,00.1,0666.9,31.1
2021-09-04T20:47:00Z,00000200,01000000,0000.48,0000.26,0000.05,-000.45,0000.12,-000.23,-000.55,-000.10,0000.02,19.4,25.8,00.1,00.0,0667.0,31.1
2021-09-04T20:48:00Z,00000200,01000000,0001.05,0000.66,0000.25,0000.20,0000.21,0000.22,-000.09,-000.32,-000.22,19.4,25.8,00.0,00.0,0667.0,31.1
2021-09-04T20:49:00Z,00000200,01000000,0000.83,0000.60,0000.27,0000.20,0000.04,-000.11,-000.05,0000.05,-000.12,19.4,25.8,00.0,00.0,0667.0,31.1
2021-09-04T20:50:00Z,00000200,01000000,-000.68,0000.31,0000.21,0000.02,0000.00,0000.12,0000.08,0000.18,-000.24,19.3,25.7,00.0,00.0,0667.0,31.1
2021-09-04T20:51:00Z,00000200,01000000,-000.11,-000.03,0000.14,-000.25,0000.02,-000.17,0000.10,0000.02,-000.27,19.3,25.7,00.0,00.0,0667.0,31.1
2021-09-04T20:52:00Z,00000200,01000000,0000.73,0000.78,-000.16,0000.08,0000.02,-000.28,0000.08,0000.06,0000.46,19.3,25.7,00.0,00.0,0666.9,31.1
2021-09-04T20:53:00Z,00000200,01000000,-000.20,0000.16,0000.11,-000.30,-000.09,-000.06,0000.38,0000.34,0000.22,19.2,25.7,00.0,00.0,0666.9,31.1
2021-09-04T20:54:00Z,00000200,01000000,-000.28,-000.02,0000.09,-000.03,0000.28,-000.04,-000.11,-000.01,0000.03,19.2,25.7,00.0,00.0,0666.9,31.1
2021-09-04T20:55:00Z,00000200,01000000,-000.18,-000.06,-000.00,0000.51,0000.01,-000.04,-000.00,-000.08,-000.06,19.1,25.6,00.0,00.0,0666.9,31.1
2021-09-04T20:56:00Z,00000200,01000000,-000.43,0000.23,-000.16,-000.11,0000.14,0000.03,-000.03,-000.17,-000.16,19.1,25.6,00.0,00.0,0666.9,31.1
2021-09-04T20:57:00Z,00000200,41000000,,,,,,,0000.68,0000.25,0000.30,19.1,25.6,,00.0,0667.0,31.1
2021-09-04T20:58:00Z,00000200,61000000,,,,,,,-000.40,0000.07,0000.03,18.8,25.7,,00.0,0665.9,31.1
2021-09-04T20:59:00Z,00000200,21000000,,,,,,,-000.03,-000.02,0000.12,18.8,25.8,,00.0,0666.0,31.1
